RYR8SL LIRN-LIME

Flight info

Callsign RYR8SL
Flight time 1h 14m
Altitude 34000
Route ALAXI DCT INSOX DCT AMTEL DCT KUGIX DCT LOMED DCT IPLUB DCT OSBUL
Aircraft B738/M-SDE2E3FGHIRWXY/LB1

Departure

Time 2026-05-04 19:47
Airport Naples International Airport (LIRN)

Arrival

Time 2026-05-04 21:01
Airport Il Caravaggio International Airport (LIME)
Time Latitude Longitude Altitude Speed Heading
2026-05-04 19:27 40.87874 14.28342 289 ft 0 kts 187°
2026-05-04 19:38 40.87892 14.28345 293 ft 4 kts 187°
2026-05-04 19:38 40.87917 14.28352 295 ft 4 kts 207°
2026-05-04 19:39 40.87937 14.28373 290 ft 4 kts 246°
2026-05-04 19:39 40.87940 14.28397 287 ft 1 kts 276°
2026-05-04 19:39 40.87940 14.28402 289 ft 1 kts 276°
2026-05-04 19:41 40.87940 14.28401 287 ft 1 kts 276°
2026-05-04 19:41 40.87942 14.28379 288 ft 5 kts 275°
2026-05-04 19:41 40.87947 14.28312 289 ft 10 kts 276°
2026-05-04 19:42 40.87957 14.28199 292 ft 15 kts 278°
2026-05-04 19:42 40.88023 14.28153 294 ft 15 kts 42°
2026-05-04 19:42 40.88065 14.28243 288 ft 20 kts 75°
2026-05-04 19:42 40.88047 14.28510 284 ft 23 kts 98°
2026-05-04 19:43 40.88103 14.28702 280 ft 24 kts 54°
2026-05-04 19:43 40.88175 14.28828 277 ft 16 kts 53°
2026-05-04 19:43 40.88251 14.28962 274 ft 21 kts 54°
2026-05-04 19:43 40.88346 14.29124 270 ft 23 kts 52°
2026-05-04 19:44 40.88413 14.29239 267 ft 25 kts 52°
2026-05-04 19:44 40.88518 14.29420 262 ft 26 kts 52°
2026-05-04 19:44 40.88629 14.29610 256 ft 21 kts 52°
2026-05-04 19:44 40.88727 14.29783 251 ft 26 kts 52°
2026-05-04 19:45 40.88840 14.29978 245 ft 27 kts 52°
2026-05-04 19:45 40.88935 14.30140 239 ft 13 kts 52°
2026-05-04 19:45 40.88992 14.30170 237 ft 2 kts 332°
2026-05-04 19:45 40.89012 14.30154 237 ft 5 kts 329°
2026-05-04 19:46 40.89057 14.30118 237 ft 11 kts 317°
2026-05-04 19:46 40.89032 14.29990 240 ft 31 kts 237°
2026-05-04 19:46 40.88759 14.29413 258 ft 115 kts 238°
2026-05-04 19:46 40.88206 14.28261 368 ft 178 kts 238°
2026-05-04 19:47 40.87435 14.26843 1098 ft 202 kts 228°
2026-05-04 19:47 40.86321 14.25684 2024 ft 208 kts 198°
2026-05-04 19:47 40.84970 14.25700 3191 ft 188 kts 169°
2026-05-04 19:47 40.83687 14.26011 4142 ft 187 kts 171°
2026-05-04 19:48 40.82399 14.26303 4973 ft 189 kts 172°
2026-05-04 19:48 40.81093 14.26589 5694 ft 192 kts 172°
2026-05-04 19:48 40.79756 14.26871 6372 ft 196 kts 172°
2026-05-04 19:48 40.78415 14.27145 6972 ft 199 kts 172°
2026-05-04 19:49 40.77037 14.27423 7535 ft 202 kts 172°
2026-05-04 19:49 40.75642 14.27701 8086 ft 204 kts 173°
2026-05-04 19:49 40.74230 14.27981 8625 ft 206 kts 173°
2026-05-04 19:49 40.72821 14.28373 9141 ft 211 kts 157°
2026-05-04 19:50 40.71702 14.29692 9413 ft 231 kts 120°
2026-05-04 19:50 40.71425 14.31840 9700 ft 249 kts 82°
2026-05-04 19:50 40.71792 14.34091 10287 ft 253 kts 78°
2026-05-04 19:50 40.72173 14.36374 10928 ft 257 kts 78°
2026-05-04 19:51 40.72541 14.38677 11718 ft 256 kts 76°
2026-05-04 19:51 40.73261 14.40798 12440 ft 256 kts 46°
2026-05-04 19:51 40.74694 14.42150 13098 ft 257 kts 17°
2026-05-04 19:51 40.76510 14.42435 13367 ft 276 kts 352°
2026-05-04 19:52 40.78480 14.42004 13605 ft 299 kts 348°
2026-05-04 19:52 40.80606 14.41442 13799 ft 323 kts 347°
2026-05-04 19:52 40.82888 14.40831 13986 ft 346 kts 348°
2026-05-04 19:52 40.85317 14.40203 14300 ft 363 kts 348°
2026-05-04 19:53 40.87822 14.39573 14906 ft 369 kts 348°
2026-05-04 19:53 40.90355 14.38945 15615 ft 371 kts 348°
2026-05-04 19:53 40.92848 14.38059 16294 ft 373 kts 334°
2026-05-04 19:53 40.95006 14.36184 16986 ft 373 kts 319°
2026-05-04 19:54 40.96992 14.33971 17685 ft 375 kts 318°
2026-05-04 19:54 40.98983 14.31700 18338 ft 379 kts 317°
2026-05-04 19:54 41.00988 14.29410 18920 ft 382 kts 317°
2026-05-04 19:54 41.03013 14.27108 19501 ft 385 kts 318°
2026-05-04 19:55 41.05033 14.24824 20045 ft 388 kts 318°
2026-05-04 19:55 41.07122 14.22472 20611 ft 391 kts 318°
2026-05-04 19:55 41.09180 14.20159 21104 ft 395 kts 318°
2026-05-04 19:55 41.11291 14.17788 21600 ft 400 kts 318°
2026-05-04 19:56 41.13426 14.15391 22110 ft 403 kts 318°
2026-05-04 19:56 41.15569 14.12982 22663 ft 405 kts 318°
2026-05-04 19:56 41.17730 14.10551 23183 ft 408 kts 318°
2026-05-04 19:56 41.19905 14.08103 23676 ft 411 kts 318°
2026-05-04 19:57 41.22091 14.05638 24132 ft 413 kts 318°
2026-05-04 19:57 41.24284 14.03164 24633 ft 413 kts 318°
2026-05-04 19:57 41.26475 14.00691 25158 ft 413 kts 317°
2026-05-04 19:57 41.28666 13.98215 25634 ft 413 kts 317°
2026-05-04 19:58 41.30816 13.95686 26065 ft 413 kts 314°
2026-05-04 19:58 41.32836 13.92960 26498 ft 414 kts 311°
2026-05-04 19:58 41.34772 13.90180 26939 ft 414 kts 311°
2026-05-04 19:58 41.36715 13.87345 27385 ft 415 kts 310°
2026-05-04 19:59 41.38669 13.84503 27773 ft 417 kts 310°
2026-05-04 19:59 41.40647 13.81653 28077 ft 421 kts 311°
2026-05-04 19:59 41.42651 13.78787 28463 ft 422 kts 311°
2026-05-04 19:59 41.44657 13.75934 28899 ft 421 kts 311°
2026-05-04 20:00 41.46658 13.73097 29449 ft 418 kts 311°
2026-05-04 20:00 41.48637 13.70294 30129 ft 413 kts 311°
2026-05-04 20:00 41.50591 13.67522 30707 ft 407 kts 311°
2026-05-04 20:00 41.52526 13.64776 31150 ft 405 kts 310°
2026-05-04 20:01 41.54431 13.62066 31512 ft 405 kts 310°
2026-05-04 20:01 41.56356 13.59325 31887 ft 404 kts 310°
2026-05-04 20:01 41.58273 13.56593 32310 ft 402 kts 310°
2026-05-04 20:01 41.60181 13.53872 32780 ft 399 kts 310°
2026-05-04 20:02 41.62072 13.51173 33191 ft 397 kts 310°
2026-05-04 20:02 41.63962 13.48472 33495 ft 398 kts 309°
2026-05-04 20:02 41.65851 13.45770 33795 ft 398 kts 309°
2026-05-04 20:02 41.67745 13.43057 34129 ft 398 kts 309°
2026-05-04 20:03 41.69643 13.40337 34133 ft 401 kts 309°
2026-05-04 20:03 41.73430 13.34906 34140 ft 396 kts 309°
2026-05-04 20:04 41.77167 13.29505 34145 ft 394 kts 309°
2026-05-04 20:04 41.80876 13.24127 34155 ft 393 kts 309°
2026-05-04 20:05 41.84846 13.19057 34159 ft 396 kts 315°
2026-05-04 20:05 41.89078 13.14372 34162 ft 397 kts 316°
2026-05-04 20:06 41.93352 13.09650 34158 ft 399 kts 315°
2026-05-04 20:06 41.97637 13.04861 34156 ft 401 kts 315°
2026-05-04 20:07 42.01921 13.00038 34148 ft 404 kts 315°
2026-05-04 20:07 42.06179 12.95228 34148 ft 406 kts 315°
2026-05-04 20:08 42.10485 12.90355 34141 ft 407 kts 315°
2026-05-04 20:08 42.14842 12.85415 34139 ft 406 kts 315°
2026-05-04 20:09 42.19140 12.80533 34147 ft 406 kts 315°
2026-05-04 20:09 42.23456 12.75621 34129 ft 406 kts 314°
2026-05-04 20:10 42.27769 12.70703 34139 ft 405 kts 314°
2026-05-04 20:10 42.32079 12.65778 34148 ft 406 kts 315°
2026-05-04 20:11 42.36386 12.60848 34144 ft 406 kts 315°
2026-05-04 20:11 42.40699 12.55904 34143 ft 406 kts 315°
2026-05-04 20:12 42.45013 12.50948 34139 ft 407 kts 315°
2026-05-04 20:12 42.49296 12.46018 34143 ft 406 kts 315°
2026-05-04 20:13 42.53603 12.41052 34132 ft 406 kts 315°
2026-05-04 20:13 42.57907 12.36078 34151 ft 407 kts 315°
2026-05-04 20:14 42.62211 12.31098 34149 ft 407 kts 315°
2026-05-04 20:14 42.66522 12.26099 34131 ft 407 kts 315°
2026-05-04 20:15 42.70831 12.21092 34136 ft 407 kts 315°
2026-05-04 20:15 42.75136 12.16082 34138 ft 407 kts 315°
2026-05-04 20:16 42.79444 12.11057 34138 ft 407 kts 314°
2026-05-04 20:16 42.83747 12.06030 34142 ft 407 kts 314°
2026-05-04 20:17 42.88014 12.01034 34136 ft 407 kts 314°
2026-05-04 20:17 42.92254 11.96061 34134 ft 407 kts 314°
2026-05-04 20:18 42.96546 11.91017 34130 ft 407 kts 314°
2026-05-04 20:18 43.00825 11.85979 34130 ft 406 kts 314°
2026-05-04 20:19 43.05108 11.80926 34135 ft 406 kts 314°
2026-05-04 20:19 43.09358 11.75903 34134 ft 406 kts 314°
2026-05-04 20:20 43.13627 11.70846 34128 ft 406 kts 314°
2026-05-04 20:20 43.17902 11.65775 34124 ft 407 kts 313°
2026-05-04 20:21 43.22243 11.60788 34121 ft 411 kts 319°
2026-05-04 20:21 43.29855 11.55025 34101 ft 419 kts 325°
2026-05-04 20:22 43.32442 11.53138 33802 ft 422 kts 325°
2026-05-04 20:22 43.35027 11.51238 33537 ft 420 kts 325°
2026-05-04 20:22 43.37601 11.49334 33277 ft 419 kts 325°
2026-05-04 20:22 43.40163 11.47432 33007 ft 418 kts 325°
2026-05-04 20:23 43.42718 11.45528 32740 ft 417 kts 325°
2026-05-04 20:23 43.45271 11.43625 32471 ft 416 kts 325°
2026-05-04 20:23 43.47811 11.41727 32225 ft 415 kts 326°
2026-05-04 20:23 43.50348 11.39832 31987 ft 415 kts 326°
2026-05-04 20:24 43.52883 11.37937 31725 ft 415 kts 326°
2026-05-04 20:24 43.55422 11.36036 31479 ft 415 kts 326°
2026-05-04 20:24 43.57957 11.34137 31235 ft 415 kts 326°
2026-05-04 20:24 43.60499 11.32231 30983 ft 415 kts 326°
2026-05-04 20:25 43.63029 11.30332 30745 ft 414 kts 326°
2026-05-04 20:25 43.65531 11.28452 30505 ft 414 kts 326°
2026-05-04 20:25 43.68058 11.26551 30279 ft 414 kts 326°
2026-05-04 20:25 43.70590 11.24644 29998 ft 414 kts 327°
2026-05-04 20:26 43.73113 11.22742 29721 ft 414 kts 327°
2026-05-04 20:26 43.75638 11.20838 29446 ft 413 kts 327°
2026-05-04 20:26 43.78160 11.18933 29165 ft 413 kts 327°
2026-05-04 20:26 43.80677 11.17030 28894 ft 412 kts 327°
2026-05-04 20:27 43.83191 11.15128 28623 ft 411 kts 327°
2026-05-04 20:27 43.85691 11.13235 28354 ft 409 kts 327°
2026-05-04 20:27 43.88186 11.11344 28100 ft 408 kts 327°
2026-05-04 20:27 43.90671 11.09457 27836 ft 406 kts 327°
2026-05-04 20:28 43.93145 11.07579 27580 ft 404 kts 327°
2026-05-04 20:28 43.95607 11.05706 27326 ft 403 kts 327°
2026-05-04 20:28 43.98062 11.03837 27068 ft 401 kts 327°
2026-05-04 20:28 44.00500 11.01981 26840 ft 400 kts 327°
2026-05-04 20:29 44.02931 11.00118 26605 ft 398 kts 326°
2026-05-04 20:29 44.05246 10.98190 26356 ft 397 kts 324°
2026-05-04 20:29 44.07577 10.96139 26112 ft 395 kts 324°
2026-05-04 20:29 44.09889 10.94073 25912 ft 394 kts 324°
2026-05-04 20:30 44.12198 10.92015 25671 ft 394 kts 324°
2026-05-04 20:30 44.14510 10.89966 25426 ft 393 kts 324°
2026-05-04 20:30 44.16785 10.87959 25181 ft 392 kts 324°
2026-05-04 20:30 44.19084 10.85935 24978 ft 391 kts 324°
2026-05-04 20:31 44.21420 10.83881 24731 ft 390 kts 324°
2026-05-04 20:31 44.23682 10.81889 24505 ft 390 kts 324°
2026-05-04 20:31 44.25975 10.79865 24269 ft 390 kts 324°
2026-05-04 20:31 44.28263 10.77834 24037 ft 389 kts 324°
2026-05-04 20:32 44.30542 10.75804 23815 ft 389 kts 324°
2026-05-04 20:32 44.32825 10.73768 23549 ft 389 kts 324°
2026-05-04 20:32 44.35100 10.71739 23269 ft 388 kts 324°
2026-05-04 20:32 44.36608 10.70393 23086 ft 387 kts 324°
2026-05-04 20:33 44.38876 10.68366 22820 ft 386 kts 324°
2026-05-04 20:33 44.41135 10.66347 22549 ft 385 kts 324°
2026-05-04 20:33 44.43385 10.64334 22260 ft 381 kts 324°
2026-05-04 20:33 44.45607 10.62344 21904 ft 377 kts 324°
2026-05-04 20:34 44.47799 10.60381 21566 ft 369 kts 324°
2026-05-04 20:34 44.49921 10.58479 21219 ft 356 kts 324°
2026-05-04 20:34 44.51978 10.56634 20872 ft 345 kts 324°
2026-05-04 20:34 44.53973 10.54842 20539 ft 335 kts 324°
2026-05-04 20:35 44.55909 10.53101 20214 ft 326 kts 324°
2026-05-04 20:35 44.57794 10.51404 19914 ft 316 kts 324°
2026-05-04 20:35 44.59599 10.49779 19632 ft 301 kts 324°
2026-05-04 20:35 44.61305 10.48242 19337 ft 291 kts 324°
2026-05-04 20:36 44.63001 10.46710 19029 ft 288 kts 324°
2026-05-04 20:36 44.64667 10.45204 18700 ft 281 kts 324°
2026-05-04 20:36 44.66297 10.43731 18383 ft 275 kts 324°
2026-05-04 20:36 44.67889 10.42291 18017 ft 270 kts 324°
2026-05-04 20:37 44.69449 10.40878 17661 ft 264 kts 324°
2026-05-04 20:37 44.70979 10.39493 17314 ft 260 kts 324°
2026-05-04 20:37 44.72489 10.38124 16975 ft 256 kts 324°
2026-05-04 20:37 44.73986 10.36765 16639 ft 255 kts 324°
2026-05-04 20:38 44.75467 10.35421 16299 ft 253 kts 324°
2026-05-04 20:38 44.76942 10.34082 15965 ft 251 kts 324°
2026-05-04 20:38 44.78408 10.32751 15655 ft 249 kts 324°
2026-05-04 20:38 44.79856 10.31435 15369 ft 245 kts 324°
2026-05-04 20:39 44.81290 10.30132 15013 ft 248 kts 324°
2026-05-04 20:39 44.82751 10.28808 14708 ft 252 kts 325°
2026-05-04 20:39 44.84240 10.27489 14399 ft 252 kts 325°
2026-05-04 20:39 44.85706 10.26197 14092 ft 251 kts 325°
2026-05-04 20:40 44.87181 10.24896 13771 ft 250 kts 325°
2026-05-04 20:40 44.88653 10.23597 13425 ft 249 kts 325°
2026-05-04 20:40 44.90117 10.22302 13084 ft 248 kts 325°
2026-05-04 20:40 44.91581 10.21006 12746 ft 248 kts 325°
2026-05-04 20:41 44.93047 10.19707 12406 ft 248 kts 325°
2026-05-04 20:41 44.94509 10.18411 12090 ft 248 kts 325°
2026-05-04 20:41 44.95974 10.17110 11763 ft 249 kts 326°
2026-05-04 20:41 44.97440 10.15808 11444 ft 249 kts 326°
2026-05-04 20:42 44.98908 10.14504 11134 ft 250 kts 326°
2026-05-04 20:42 45.00378 10.13197 10821 ft 250 kts 326°
2026-05-04 20:42 45.01851 10.11887 10481 ft 252 kts 326°
2026-05-04 20:42 45.03344 10.10557 10098 ft 255 kts 326°
2026-05-04 20:43 45.04841 10.09224 9690 ft 253 kts 326°
2026-05-04 20:43 45.06316 10.07906 9264 ft 248 kts 326°
2026-05-04 20:43 45.07763 10.06610 8838 ft 244 kts 326°
2026-05-04 20:43 45.09187 10.05334 8433 ft 241 kts 326°
2026-05-04 20:44 45.10594 10.04072 8022 ft 238 kts 326°
2026-05-04 20:44 45.11987 10.02823 7626 ft 236 kts 326°
2026-05-04 20:44 45.13367 10.01583 7243 ft 234 kts 326°
2026-05-04 20:44 45.14717 10.00370 6854 ft 231 kts 326°
2026-05-04 20:45 45.16032 9.99188 6471 ft 228 kts 326°
2026-05-04 20:45 45.17356 9.97998 6173 ft 220 kts 326°
2026-05-04 20:45 45.18630 9.96852 5905 ft 214 kts 326°
2026-05-04 20:45 45.19882 9.95726 5645 ft 212 kts 326°
2026-05-04 20:46 45.21124 9.94606 5396 ft 211 kts 326°
2026-05-04 20:46 45.22363 9.93494 5149 ft 210 kts 328°
2026-05-04 20:46 45.23749 9.92929 4866 ft 211 kts
2026-05-04 20:46 45.25165 9.93332 4657 ft 206 kts 29°
2026-05-04 20:47 45.26159 9.94673 4768 ft 195 kts 51°
2026-05-04 20:47 45.27082 9.96185 4987 ft 210 kts 50°
2026-05-04 20:47 45.28069 9.97776 4962 ft 213 kts 49°
2026-05-04 20:47 45.29038 9.99323 4953 ft 211 kts 50°
2026-05-04 20:48 45.30012 10.00869 4953 ft 210 kts 49°
2026-05-04 20:48 45.30992 10.02417 4967 ft 211 kts 49°
2026-05-04 20:48 45.31979 10.03970 4974 ft 212 kts 49°
2026-05-04 20:48 45.32972 10.05531 4976 ft 213 kts 48°
2026-05-04 20:49 45.33965 10.07089 4972 ft 213 kts 48°
2026-05-04 20:49 45.34958 10.08644 4959 ft 212 kts 48°
2026-05-04 20:49 45.35949 10.10196 4954 ft 210 kts 49°
2026-05-04 20:49 45.36911 10.11702 4947 ft 203 kts 49°
2026-05-04 20:50 45.37850 10.13173 4948 ft 199 kts 49°
2026-05-04 20:50 45.38784 10.14636 4960 ft 201 kts 49°
2026-05-04 20:50 45.39725 10.16109 4969 ft 201 kts 49°
2026-05-04 20:50 45.40728 10.17496 4953 ft 202 kts 31°
2026-05-04 20:51 45.42051 10.17777 4881 ft 191 kts 341°
2026-05-04 20:51 45.43092 10.16789 4731 ft 176 kts 318°
2026-05-04 20:51 45.44042 10.15703 4443 ft 174 kts 320°
2026-05-04 20:51 45.44994 10.14636 4159 ft 173 kts 320°
2026-05-04 20:52 45.45933 10.13589 4026 ft 171 kts 321°
2026-05-04 20:52 45.46864 10.12554 3977 ft 169 kts 321°
2026-05-04 20:52 45.47785 10.11532 3971 ft 168 kts 321°
2026-05-04 20:52 45.48698 10.10523 3980 ft 168 kts 321°
2026-05-04 20:53 45.49628 10.09497 3971 ft 169 kts 321°
2026-05-04 20:53 45.50562 10.08466 3965 ft 169 kts 321°
2026-05-04 20:53 45.51494 10.07439 3967 ft 169 kts 321°
2026-05-04 20:53 45.52427 10.06412 3974 ft 169 kts 321°
2026-05-04 20:54 45.53361 10.05383 3958 ft 170 kts 322°
2026-05-04 20:54 45.54283 10.04370 3950 ft 165 kts 322°
2026-05-04 20:54 45.55175 10.03388 3828 ft 159 kts 322°
2026-05-04 20:54 45.56050 10.02426 3545 ft 159 kts 322°
2026-05-04 20:55 45.56926 10.01462 3265 ft 158 kts 322°
2026-05-04 20:55 45.57791 10.00510 3040 ft 156 kts 322°
2026-05-04 20:55 45.58674 9.99539 3033 ft 165 kts 322°
2026-05-04 20:55 45.59597 9.98522 2997 ft 169 kts 322°
2026-05-04 20:56 45.60521 9.97503 2987 ft 167 kts 322°
2026-05-04 20:56 45.61427 9.96505 2978 ft 167 kts 322°
2026-05-04 20:56 45.62136 9.95243 2967 ft 161 kts 288°
2026-05-04 20:56 45.62453 9.93744 2969 ft 152 kts 289°
2026-05-04 20:57 45.62772 9.92328 3014 ft 145 kts 287°
2026-05-04 20:57 45.63036 9.91000 3018 ft 133 kts 286°
2026-05-04 20:57 45.63270 9.89759 2980 ft 126 kts 285°
2026-05-04 20:57 45.63494 9.88550 3002 ft 130 kts 285°
2026-05-04 20:58 45.63728 9.87281 2895 ft 134 kts 285°
2026-05-04 20:58 45.63962 9.86005 2723 ft 131 kts 285°
2026-05-04 20:58 45.64191 9.84759 2550 ft 128 kts 285°
2026-05-04 20:58 45.64414 9.83544 2390 ft 126 kts 285°
2026-05-04 20:59 45.64636 9.82327 2229 ft 127 kts 284°
2026-05-04 20:59 45.64879 9.81124 2058 ft 125 kts 290°
2026-05-04 20:59 45.65105 9.79940 1864 ft 127 kts 281°
2026-05-04 20:59 45.65280 9.78700 1581 ft 125 kts 284°
2026-05-04 21:00 45.65479 9.77503 1344 ft 123 kts 282°
2026-05-04 21:00 45.65687 9.76308 1181 ft 124 kts 287°
2026-05-04 21:00 45.65931 9.75125 1067 ft 125 kts 288°
2026-05-04 21:00 45.66172 9.73930 960 ft 124 kts 287°
2026-05-04 21:01 45.66394 9.72734 810 ft 125 kts 290°
2026-05-04 21:01 45.66609 9.71616 786 ft 101 kts 292°
2026-05-04 21:01 45.66756 9.70838 786 ft 72 kts 283°
2026-05-04 21:01 45.66855 9.70267 786 ft 41 kts 283°
2026-05-04 21:02 45.66862 9.69970 786 ft 23 kts 248°
2026-05-04 21:02 45.66796 9.69773 786 ft 21 kts 259°